{"data":{"norad_id":61917,"intl_designator":"2024-207F","name":"STARLINK-32544","alt_names":[],"object_type":"PAYLOAD","status":"ACTIVE","operator":null,"country":"US","launch_date":"2024-11-11","launch_site_code":"AFETR","launch_vehicle":null,"mission":null,"orbit_class":"UNKNOWN","rcs_meters":null,"size_class":null,"mass_kg":null,"dimensions":null,"purposes":["comms"],"wikipedia_slug":null,"has_3d_model":false,"image_url":null,"decayed_at":null,"tle_current":{"epoch":"2026-09-21T07:49:34.844736Z","epoch_age_seconds":117544,"freshness":"FRESH","line1":"1 61917U 24207F   26264.32609774  .00011368  00000+0  42175-3 0  9997","line2":"2 61917  43.0009 256.7616 0001552 260.9465  99.1211 15.27598994104647","mean_motion":15.27598994,"eccentricity":0.0001552,"inclination_deg":43.0009,"raan_deg":256.7616,"arg_perigee_deg":260.9465,"mean_anomaly_deg":99.1211,"bstar":0.00042175,"rev_number":10464,"period_min":94.265576611135,"perigee_km":481.92737450469,"apogee_km":484.05706901513,"semimajor_km":6861.1292217599,"source":"CELESTRAK","updated_at":"2026-09-22T09:00:49.449486Z"}}}